Voltar ao catálogo

STARLINK-33754

AtivoComunicaçõesVLEO
NORAD 63487·PAYLOAD·🇺🇸 United States

Lançado Apr 6, 2025 de Cape Canaveral Space Force Station

Loading…

Próximas Passagens (próximas 24 horas)

TLE

AtualizadoSource: CelesTrak SupGP

Época: Sep 15, 2026, 03:04 UTC

1 63487C 25070AD  26258.12826389 -.00012529  00000+0 -45381-3 0  2586
2 63487  43.0015 270.0297 0001548 269.9142 229.1004 15.27583360    10

Acompanhe STARLINK-33754 em tempo real com AllMySat

Download on the App Store